Location: Bats
(43.6587°N, 0.4584°W)
Time: 20:26:50
(UTC+00:00)

Meteor 1-16 Rocket - Pass Details

Date: 12 January 2026
Orbit: 789 x 905 km, 81.2° (Epoch: 13 February)

Event Time Altitude Azimuth Distance (km) Brightness Sun altitude
Rises 18:06:21 0° 354° (N) 3,295 7.2 -14.0°
Reaches altitude 10° 18:08:48 10° 359° (N) 2,362 6.4 -14.4°
Maximum altitude 18:13:59 52° 76° (ENE) 979 4.2 -15.3°
Drops below altitude 10° 18:19:11 10° 153° (SSE) 2,376 6.4 -16.2°
Sets 18:21:38 0° 158° (SSE) 3,316 7.2 -16.7°
